Regional Weather Roundup
Issued by NWS

Home | Current Version | Previous Version | Graphics & Text | Print | Product List | Glossary On
Versions: 1 2 3 4 5 6 7 8 9 10 11 12 13 14 15 16 17 18 19 20 21 22 23 24 25 26 27 28 29 30 31 32 33 34 35 36 37 38 39 40 41 42 43 44 45 46 47 48 49 50
000
ASUS45 KCYS 190510
RWRWY

WYOMING REGIONAL WEATHER ROUNDUP
NATIONAL WEATHER SERVICE CHEYENNE WY
1000 PM MST SAT NOV 18 2017

NOTE:  "FAIR" INDICATES FEW OR NO CLOUDS BELOW 12,000 FEET
WITH NO SIGNIFICANT WEATHER AND/OR OBSTRUCTIONS TO VISIBILITY.

WYZ001-190600-
YELLOWSTONE NATIONAL PARK

CITY           SKY/WX    TMP DP  RH WIND       PRES   REMARKS
LK YELLOWSTONE   N/A     16  12  84 W3        30.29F
W YELLOWSTONE  NOT AVBL

$$
WYZ002>013-054>058-071-098>099-190600-
NORTHERN WYOMING

CITY           SKY/WX    TMP DP  RH WIND       PRES   REMARKS
JACKSON        FAIR       8   5  87 N5        30.33  WCI   0
CODY           FAIR      35  13  40 SW31      30.12F WCI  22
GREYBULL       FAIR      27  18  69 SE5       30.16F WCI  22
WORLAND        FAIR      25  19  78 CALM      30.16F
SHERIDAN       FAIR      23  18  81 S3        30.09F
BUFFALO        FAIR      27  12  53 S8        30.11R WCI  19
GILLETTE       FAIR      29  17  61 SW12      30.11S WCI  19
HULETT         FAIR      32  18  55 SW8       30.12S WCI  25
NEWCASTLE      FAIR      23  14  68 N6        30.16S WCI  16

$$
WYZ014>020-022>026-101>103-190600-
CENTRAL WYOMING

CITY           SKY/WX    TMP DP  RH WIND       PRES   REMARKS
BIG PINEY      FAIR       5   2  87 NE5       30.32R WCI  -4
PINEDALE       FAIR      10   7  85 NW7       30.31S WCI   0
DUBOIS         FAIR      21  10  63 NW24G30   30.18S WCI   4
LANDER         FAIR      30  12  47 CALM      30.17F
RIVERTON       FAIR      26  16  65 S8        30.19R WCI  18
CASPER         FAIR      29  19  66 SW23G30   30.17F WCI  15
DOUGLAS        FAIR      23  18  81 N5        30.17S WCI  17

$$
WYZ021-027>030-104>119-190600-
SOUTHERN WYOMING

CITY           SKY/WX    TMP DP  RH WIND       PRES   REMARKS
EVANSTON       FAIR      19  16  88 CALM      30.31S
FORT BRIDGER   FAIR      16   9  73 SW7       30.34F WCI   6
ROCK SPRINGS   FAIR      19  10  68 S6        30.32S WCI  11
DIXON          FAIR      14   8  78 CALM      30.38S
RAWLINS        FAIR      23  12  62 S3        30.28F
SARATOGA       FAIR      19   9  63 S12       30.30R WCI   7
LARAMIE        FAIR      25   8  48 SW21      30.20S WCI  11
CHEYENNE       FAIR      34   9  35 W20       30.20S WCI  23
TORRINGTON     FAIR      29  18  63 NW3       30.19S
PINE BLUFFS    FAIR      19  14  79 MISG      30.23R

$$



USA.gov is the U.S. government's official web portal to all federal, state and local government web resources and services.